Regional Weather Roundup
Issued by NWS

Home | Current Version | Previous Version | Graphics & Text | Print | Product List | Glossary On
Versions: 1 2 3 4 5 6 7 8 9 10 11 12 13 14 15 16 17 18 19 20 21 22 23 24 25 26 27 28 29 30 31 32 33 34 35 36 37 38 39 40 41 42 43 44 45 46 47 48 49 50
000
ASUS43 KLMK 251010
RWRKY
KENTUCKY REGIONAL WEATHER ROUNDUP
NATIONAL WEATHER SERVICE LOUISVILLE KY
600 AM EDT TUE APR 25 2017

NOTE "FAIR" INDICATES FEW OR NO CLOUDS BELOW 12,000 FEET
WITH NO SIGNIFICANT WEATHER AND/OR OBSTRUCTIONS TO VISIBILITY.

KYZ001>023-026-027-061>063-070>075-251100-
WESTERN AND SOUTH CENTRAL KENTUCKY

CITY           SKY/WX    TMP DP  RH WIND       PRES   REMARKS
PADUCAH        CLEAR     57  53  86 S7        29.73S
HENDERSON      PTCLDY    54  52  93 SW3       29.75R
OWENSBORO      CLEAR     55  53  93 SE3       29.76S
HOPKINSVILLE   CLEAR     54  54 100 SW3       29.76R
BOWLING GREEN  CLEAR     53  52  96 CALM      29.76F
GLASGOW        CLOUDY   N/A N/A N/A CALM      29.77R
$$

KYZ024-025-028>034-038-045-046-053-251100-
NORTH CENTRAL KENTUCKY

CITY           SKY/WX    TMP DP  RH WIND       PRES   REMARKS
LOUISVILLE/SDF CLEAR     57  53  86 E3        29.77R
LOUISVILLE/LOU CLEAR     54  53  97 CALM      29.78R
FORT KNOX      CLEAR     52  51  99 CALM      29.75S
$$

KYZ035>037-039>044-047>052-055>060-089>105-251100-
NORTHEAST KENTUCKY

CITY           SKY/WX    TMP DP  RH WIND       PRES   REMARKS
LEXINGTON      CLEAR     53  50  89 NE7       29.78S
COVINGTON      PTCLDY    55  51  86 NE6       29.79R
FRANKFORT      CLEAR     51  48  89 CALM      29.77R
$$

KYZ054-064>069-076>088-106>120-251100-
SOUTHEAST KENTUCKY

CITY           SKY/WX    TMP DP  RH WIND       PRES   REMARKS
JACKSON        CLOUDY    53  52  96 CALM      29.78R
LONDON         CLOUDY    53  50  89 NE3       29.77R
SOMERSET       CLEAR     50  50 100 CALM      29.78S
MIDDLESBORO    CLOUDY    53  53 100 CALM      29.77F
MONTICELLO     FOG       49  49 100 W8        29.79R VSB 1/4
$$




USA.gov is the U.S. government's official web portal to all federal, state and local government web resources and services.